Hourly Data Report for June 26, 2022

TORONTO CITY
ONTARIO
Current Station Operator: ECCC - MSC

43°40'00.000" N
79°24'00.000" W
112.50 m
6158355
71508
XTO

Download Data

Hourly Data (June 2022)
Hourly Data Report for June 26, 2022
TIME
LST
Temp Definition
°C
Dew Point Definition
°C
Rel Hum Definition
%
Precip. Amount Definition
mm

Wind Dir Definition
10's deg

Wind Spd Definition
km/h
Visibility Definition
km
Stn Press Definition
kPa
Hmdx Definition


Wind Chill Definition


Weather Definition


00:00 22.9 13.2 54 0.0       100.25 26   LegendNANA
01:00 22.2 14.1 60 0.0       100.20 26   LegendNANA
02:00 21.8 14.4 63 0.0       100.16 25   LegendNANA
03:00 21.0 14.4 66 0.0       100.09 25   LegendNANA
04:00 20.4 14.7 70 0.0       100.11     LegendNANA
05:00 20.4 14.8 70 0.0       100.10     LegendNANA
06:00 20.5 15.3 72 0.0       100.07 25   LegendNANA
07:00 21.9 16.7 72 0.0       100.06 27   LegendNANA
08:00 22.7 16.5 68 0.0       100.07 28   LegendNANA
09:00 23.4 16.4 65 0.0       100.03 28   LegendNANA
10:00 23.7 16.6 65 0.0       100.01 29   LegendNANA
11:00 24.1 17.0 64 0.0       99.97 29   LegendNANA
12:00 25.7 17.4 60 0.0       99.95 31   LegendNANA
13:00 25.0 17.3 62 0.0       99.89 30   LegendNANA
14:00 26.1 18.1 62 0.0       99.84 32   LegendNANA
15:00 27.3 19.5 63 0.0       99.80 34   LegendNANA
16:00 27.8 19.3 60 0.0       99.72 35   LegendNANA
17:00 28.0 19.5 60 0.0       99.66 35   LegendNANA
18:00 26.5 19.2 64 0.0       99.64 33   LegendNANA
19:00 23.4 21.6 90 4.4       99.62 32   LegendNANA
20:00 22.9 21.3 91 0.0       99.67 32   LegendNANA
21:00 22.7 20.7 88 0.1       99.73 31   LegendNANA
22:00 22.0 20.6 92 0.1       99.76 30   LegendNANA
23:00 21.2 13.5 61 0.0       99.86     LegendNANA

Notes on Data Quality.

Legend

  • E = Estimated
  • M = Missing
  • NA = Not Available*
  • [empty] = Indicates an unobserved value
Date modified: